#timestamp,LO_Frequency,Hit,StdDev 
1650571215.5,286047004.3,N
1650571235.3,286046998.2,N
1650571255.2,286046997.8,N
1650571275.0,286046997.0,N
1650571275.9,286046997.0,N
1650571295.7,286046996.9,N
1650571315.6,286047002.3,N
1650571335.4,286046999.3,N
1650571355.3,286046995.6,N
1650571375.1,286046994.5,N
1650571376.0,286046994.5,N
1650571395.8,286046991.8,N
1650571415.7,286046996.4,N
1650571435.5,286046999.6,N
1650571455.3,286047000.9,N
1650571475.2,286046995.7,N
1650571495.0,286046999.2,N
1650571495.9,286046999.2,N
1650571515.8,286046997.1,N
1650571535.6,286046993.3,N
1650571555.4,286046994.0,N
1650571575.3,286046992.5,N
1650571595.1,286046992.9,N
1650571615.8,286046988.8,Y
1650571635.7,286046990.9,P
1650571655.5,286046991.1,N
1650571675.4,286046994.7,N
1650571695.2,286046992.2,N
1650571715.0,286046994.8,N
1650571715.9,286046994.8,N
1650571735.8,286046994.0,N
1650571755.6,286046996.8,N
1650571775.5,286046993.6,N
1650571795.3,286046996.7,N
1650571815.1,286046996.9,N
1650571835.9,286047004.1,N
1650571855.7,286047004.2,N
1650571875.5,286047005.4,N
1650571895.4,286047005.3,N
1650571915.2,286047006.1,N
1650571935.1,286047010.2,N
1650571936.0,286047010.2,N
1650571955.8,286047007.5,N
1650571975.6,286047004.3,N
1650571995.5,286046999.8,N
1650572015.3,286047002.7,N
1650572035.1,286047008.4,N
1650572055.9,286047007.2,N
1650572075.7,286047005.7,N
1650572095.6,286047000.9,N
1650572115.4,286046995.7,N
1650572135.2,286046995.6,N
1650572155.1,286046997.7,N
1650572156.0,286046997.7,N
1650572175.8,286047000.6,N
1650572195.6,286047001.2,N
1650572215.5,286046998.2,N
1650572235.3,286046996.5,N
1650572255.2,286047001.5,N
1650572275.9,286047000.8,N
1650572295.7,286046997.9,N
1650572315.6,286046991.7,N
1650572335.4,286046995.9,N
1650572355.2,286046992.5,N
1650572375.1,286046988.7,N
1650572376.0,286046988.7,N
1650572395.8,286046989.5,N
1650572415.7,286046985.3,N
1650572435.5,286046983.9,N
1650572455.3,286046984.1,N
1650572475.2,286046983.8,N
1650572495.0,286046986.0,N
1650572495.9,286046986.0,N
1650572515.7,286046986.4,N
1650572535.6,286046984.2,N
1650572555.4,286046982.7,N
1650572575.3,286046983.0,N
1650572595.1,286046982.1,N
1650572596.0,286046982.1,N
1650572615.8,286046985.6,N
1650572635.7,286046986.8,N
1650572655.5,286046984.0,N
1650572675.3,286046982.5,N
1650572695.2,286046982.6,N
1650572715.0,286046982.4,N
1650572715.9,286046982.4,N
1650572735.8,286046982.6,N
1650572755.6,286046982.8,Y
1650572775.4,286046993.3,P
1650572795.3,286046995.1,N
1650572815.1,286046999.3,N
1650572835.8,286046997.1,N
1650572855.7,286046997.5,N
1650572875.5,286046995.9,N
1650572895.4,286046994.5,N
1650572915.2,286046994.4,N
1650572935.0,286046994.7,N
1650572935.9,286046994.7,N
1650572955.8,286046992.5,N
1650572975.6,286046992.2,N
1650572995.4,286046995.2,N
1650573015.3,286046995.7,N
1650573035.1,286047000.0,N
1650573055.9,286046996.9,N
1650573075.7,286046997.9,N
1650573095.5,286046995.0,N
1650573115.4,286046998.5,N
1650573135.2,286046998.3,N
1650573155.0,286046997.7,N
1650573155.9,286046997.7,N
1650573175.8,286046993.4,N
1650573195.6,286046995.0,N
1650573215.5,286046995.1,N
1650573235.3,286046995.4,N
1650573255.1,286046995.6,N
1650573275.9,286046996.1,N
1650573295.7,286046992.2,Y
1650573315.6,286046996.6,P
1650573335.4,286046998.6,N
1650573355.2,286047000.8,N
1650573375.1,286046999.4,N
1650573376.0,286046999.4,N
1650573395.8,286047000.4,N
1650573415.6,286047001.7,N
1650573435.5,286047003.5,N
1650573455.3,286047001.5,N
1650573475.2,286047001.8,N
1650573495.9,286047003.6,N
1650573515.7,286047004.0,N
1650573535.6,286047001.5,N
1650573555.4,286047002.3,N
1650573575.2,286047003.1,N
1650573595.1,286047006.3,N
1650573596.0,286047006.3,N
1650573615.8,286047008.8,Y
1650573635.7,286047004.1,P
1650573655.5,286047003.4,N
1650573675.3,286047002.6,N
1650573695.2,286046998.5,N
1650573715.0,286047001.0,N
1650573715.9,286047001.0,N
1650573735.7,286047000.5,N
1650573755.6,286047003.2,N
1650573775.4,286047005.2,Y
1650573795.3,286047002.0,P
1650573815.1,286047002.5,P
1650573816.0,286047002.5,P
1650573835.8,286047000.0,N
1650573855.7,286046998.2,N
1650573875.5,286047001.5,N
1650573895.3,286047000.1,N
1650573915.2,286047000.0,N
1650573935.0,286047001.2,N
1650573935.9,286047001.2,N
1650573955.8,286046998.7,N
1650573975.6,286047005.9,Y
1650573995.4,286047001.8,P
1650574015.3,286047000.4,N
1650574035.1,286047001.2,N
1650574055.9,286046996.6,Y
1650574075.7,286047000.8,P
1650574095.5,286047001.3,P
1650574115.4,286047004.7,P
1650574135.2,286047008.2,Y
1650574155.0,286047004.2,P
1650574155.9,286047004.2,P
1650574175.8,286047002.0,N
1650574195.6,286046998.2,N
1650574215.5,286046999.2,N
1650574235.3,286046997.1,N
1650574255.1,286046996.5,N
1650574275.9,286046998.8,N
1650574295.7,286046998.3,N
1650574315.5,286046999.5,N
1650574335.4,286046998.4,N
1650574355.2,286047005.4,N
1650574375.1,286047004.0,N
1650574376.0,286047004.0,N
1650574395.8,286047000.4,N
1650574415.6,286047003.5,N
1650574435.5,286047001.8,N
1650574455.3,286047000.4,N
1650574475.1,286047000.1,N
1650574495.9,286047000.2,N
1650574515.7,286047004.4,N
1650574535.6,286047003.7,N
1650574555.4,286047001.8,N
1650574575.2,286046999.8,N
1650574595.1,286047001.1,N
1650574596.0,286047001.1,N
1650574615.8,286047003.9,N
1650574635.6,286047002.2,N
1650574655.5,286047002.4,N
1650574675.3,286047004.7,N
1650574695.1,286047003.4,N
1650574715.9,286047001.5,N
1650574735.7,286047000.0,N
1650574755.6,286047002.1,N
1650574775.4,286047000.3,N
1650574795.2,286047001.0,N
